{"data":{"norad_id":58651,"intl_designator":"2023-206B","name":"SHIYAN-24C 02","alt_names":[],"object_type":"PAYLOAD","status":"ACTIVE","operator":null,"country":"PRC","launch_date":"2023-12-25","launch_site_code":"SCSLA","launch_vehicle":null,"mission":null,"orbit_class":"UNKNOWN","rcs_meters":null,"size_class":null,"mass_kg":null,"dimensions":null,"purposes":[],"wikipedia_slug":null,"has_3d_model":false,"image_url":null,"decayed_at":null,"tle_current":{"epoch":"2026-09-21T13:56:43.243584Z","epoch_age_seconds":154277,"freshness":"FRESH","line1":"1 58651U 23206B   26264.58105606  .00001712  00000+0  14940-3 0  9990","line2":"2 58651  97.7033 227.7166 0001626 145.2394 214.8935 14.98150636149740","mean_motion":14.98150636,"eccentricity":0.0001626,"inclination_deg":97.7033,"raan_deg":227.7166,"arg_perigee_deg":145.2394,"mean_anomaly_deg":214.8935,"bstar":0.0001494,"rev_number":14974,"period_min":96.118505402417,"perigee_km":571.48042309483,"apogee_km":573.74080621911,"semimajor_km":6950.747614657,"source":"CELESTRAK","updated_at":"2026-09-22T09:00:26.779602Z"}}}